When you browse on this site, cookies collect data to enhance your experience and personalize the content and advertising you see.
Visit our Privacy Policy to learn more. By continuing to use the site, you agree to this use of cookies and data.
  • In Spain
  • List of Countries
  • For 7 days
  • Water Temperature
  • Satellite Maps
  • Weather Map
  • Weather Widgets
  • user-avatar
    Login

    Hourly Weather Kruhlyky

    Today, 23 May, Thursday

    Time Temperature Precipitation Wind Pressure Humidity
    00:00 +13°C° 0 mm 1 mps 725 mmHg 86%
    01:00 +12°C° 0 mm 1 mps 725 mmHg 86%
    02:00 +12°C° 0 mm 1 mps 725 mmHg 86%
    03:00 +11°C° 0 mm 0 mps 725 mmHg 86%
    04:00 +11°C° 0 mm 0 mps 725 mmHg 86%
    05:00 +11°C° 0 mm 0 mps 725 mmHg 86%
    06:00 +13°C° 0 mm 0 mps 726 mmHg 82%
    07:00 +15°C° 0 mm 0 mps 726 mmHg 77%
    08:00 +16°C° 0 mm 0 mps 726 mmHg 73%
    09:00 +19°C° 0.2 mm 1 mps 726 mmHg 70%
    10:00 +20°C° 0.2 mm 1 mps 726 mmHg 66%
    11:00 +21°C° 0.2 mm 1 mps 726 mmHg 63%
    12:00 +22°C° 0.6 mm 1 mps 726 mmHg 62%
    13:00 +22°C° 0.6 mm 1 mps 726 mmHg 61%
    14:00 +23°C° 0.6 mm 1 mps 726 mmHg 60%
    15:00 +23°C° 0.4 mm 1 mps 726 mmHg 61%
    16:00 +22°C° 0.4 mm 1 mps 726 mmHg 63%
    17:00 +22°C° 0.4 mm 1 mps 726 mmHg 64%
    18:00 +21°C° 0.8 mm 1 mps 726 mmHg 69%
    19:00 +17°C° 0.8 mm 0 mps 726 mmHg 74%
    20:00 +15°C° 0.8 mm 0 mps 726 mmHg 79%
    21:00 +15°C° 0 mm 0 mps 726 mmHg 81%
    22:00 +14°C° 0 mm 0 mps 726 mmHg 82%
    23:00 +14°C° 0 mm 0 mps 726 mmHg 84%

    Tomorrow, 24 May, Friday

    Time Temperature Precipitation Wind Pressure Humidity
    00:00 +13°C° 0 mm 0 mps 726 mmHg 85%
    01:00 +13°C° 0 mm 0 mps 726 mmHg 86%
    02:00 +13°C° 0 mm 0 mps 726 mmHg 87%
    03:00 +14°C° 0 mm 1 mps 726 mmHg 88%
    04:00 +13°C° 0 mm 1 mps 726 mmHg 89%
    05:00 +13°C° 0 mm 1 mps 726 mmHg 90%
    06:00 +15°C° 0 mm 1 mps 726 mmHg 87%
    07:00 +16°C° 0 mm 1 mps 726 mmHg 84%
    08:00 +18°C° 0 mm 1 mps 726 mmHg 82%
    09:00 +19°C° 1 mm 1 mps 726 mmHg 78%
    10:00 +19°C° 1 mm 2 mps 726 mmHg 75%
    11:00 +20°C° 1 mm 2 mps 726 mmHg 72%
    12:00 +21°C° 0 mm 2 mps 726 mmHg 69%
    13:00 +21°C° 0 mm 2 mps 726 mmHg 67%
    14:00 +23°C° 0 mm 2 mps 726 mmHg 64%
    15:00 +21°C° 0.5 mm 3 mps 726 mmHg 68%
    16:00 +21°C° 0.5 mm 3 mps 725 mmHg 73%
    17:00 +20°C° 0.5 mm 3 mps 725 mmHg 77%
    18:00 +19°C° 0.2 mm 3 mps 725 mmHg 82%
    19:00 +17°C° 0.2 mm 3 mps 725 mmHg 87%
    20:00 +16°C° 0.2 mm 3 mps 725 mmHg 92%
    21:00 +14°C° 0.2 mm 3 mps 725 mmHg 93%
    22:00 +15°C° 0.2 mm 2 mps 725 mmHg 94%
    23:00 +14°C° 0.2 mm 2 mps 725 mmHg 95%

    Day after tomorrow, 25 May, Saturday

    Time Temperature Precipitation Wind Pressure Humidity
    00:00 +14°C° 0 mm 2 mps 725 mmHg 95%
    01:00 +13°C° 0 mm 2 mps 725 mmHg 96%
    02:00 +13°C° 0 mm 2 mps 724 mmHg 96%
    03:00 +13°C° 0.1 mm 2 mps 724 mmHg 96%
    04:00 +13°C° 0.1 mm 2 mps 724 mmHg 96%
    05:00 +12°C° 0.1 mm 3 mps 724 mmHg 96%
    06:00 +13°C° 0.1 mm 3 mps 725 mmHg 93%
    07:00 +16°C° 0.1 mm 3 mps 725 mmHg 90%
    08:00 +17°C° 0.1 mm 3 mps 725 mmHg 86%
    09:00 +18°C° 0.9 mm 4 mps 725 mmHg 83%
    10:00 +19°C° 0.9 mm 4 mps 725 mmHg 80%
    11:00 +20°C° 0.9 mm 5 mps 725 mmHg 77%
    12:00 +20°C° 1.1 mm 5 mps 725 mmHg 78%
    13:00 +20°C° 1.1 mm 5 mps 725 mmHg 79%
    14:00 +19°C° 1.1 mm 6 mps 725 mmHg 81%
    15:00 +19°C° 0.5 mm 5 mps 725 mmHg 81%
    16:00 +19°C° 0.5 mm 5 mps 725 mmHg 81%
    17:00 +19°C° 0.5 mm 5 mps 725 mmHg 81%
    18:00 +18°C° 0.1 mm 4 mps 725 mmHg 84%
    19:00 +17°C° 0.1 mm 4 mps 725 mmHg 86%
    20:00 +16°C° 0.1 mm 3 mps 726 mmHg 88%
    21:00 +14°C° 0 mm 3 mps 726 mmHg 89%
    22:00 +13°C° 0 mm 3 mps 726 mmHg 90%
    23:00 +12°C° 0 mm 3 mps 726 mmHg 91%

    26 May, Sunday

    Time Temperature Precipitation Wind Pressure Humidity
    00:00 +12°C° 0 mm 3 mps 726 mmHg 92%
    01:00 +12°C° 0 mm 3 mps 726 mmHg 92%
    02:00 +11°C° 0 mm 3 mps 726 mmHg 93%
    03:00 +11°C° 0 mm 3 mps 727 mmHg 94%
    04:00 +11°C° 0 mm 3 mps 727 mmHg 94%
    05:00 +11°C° 0 mm 3 mps 727 mmHg 95%
    06:00 +12°C° 0 mm 3 mps 727 mmHg 91%
    07:00 +14°C° 0 mm 3 mps 727 mmHg 87%
    08:00 +17°C° 0 mm 3 mps 727 mmHg 83%
    09:00 +18°C° 0 mm 3 mps 727 mmHg 77%
    10:00 +18°C° 0 mm 3 mps 727 mmHg 72%
    11:00 +19°C° 0 mm 4 mps 728 mmHg 66%
    12:00 +20°C° 0.5 mm 4 mps 727 mmHg 69%
    13:00 +20°C° 0.5 mm 4 mps 727 mmHg 71%
    14:00 +20°C° 0.5 mm 4 mps 727 mmHg 73%
    15:00 +20°C° 1 mm 5 mps 726 mmHg 75%
    16:00 +20°C° 1 mm 5 mps 726 mmHg 76%
    17:00 +20°C° 1 mm 5 mps 726 mmHg 78%
    18:00 +18°C° 0.9 mm 4 mps 726 mmHg 81%
    19:00 +17°C° 0.9 mm 4 mps 726 mmHg 85%
    20:00 +14°C° 0.9 mm 3 mps 726 mmHg 89%
    21:00 +14°C° 0.3 mm 3 mps 727 mmHg 90%
    22:00 +13°C° 0.3 mm 3 mps 727 mmHg 91%
    23:00 +12°C° 0.3 mm 3 mps 728 mmHg 92%

    27 May, Monday

    Time Temperature Precipitation Wind Pressure Humidity
    00:00 +11°C° 0 mm 3 mps 728 mmHg 91%
    01:00 +10°C° 0 mm 3 mps 728 mmHg 90%
    02:00 +9°C° 0 mm 2 mps 728 mmHg 89%
    03:00 +9°C° 0 mm 2 mps 729 mmHg 89%
    04:00 +9°C° 0 mm 2 mps 729 mmHg 89%
    05:00 +8°C° 0 mm 2 mps 729 mmHg 90%
    06:00 +10°C° 0 mm 3 mps 730 mmHg 85%
    07:00 +11°C° 0 mm 3 mps 730 mmHg 81%
    08:00 +13°C° 0 mm 4 mps 731 mmHg 76%
    09:00 +14°C° 0 mm 4 mps 731 mmHg 70%
    10:00 +16°C° 0 mm 3 mps 731 mmHg 64%
    11:00 +17°C° 0 mm 3 mps 731 mmHg 58%
    12:00 +18°C° 0 mm 3 mps 731 mmHg 58%
    13:00 +19°C° 0 mm 3 mps 731 mmHg 58%
    14:00 +19°C° 0 mm 3 mps 730 mmHg 58%
    15:00 +20°C° 0 mm 3 mps 730 mmHg 61%
    16:00 +20°C° 0 mm 3 mps 730 mmHg 65%
    17:00 +20°C° 0 mm 2 mps 730 mmHg 68%
    18:00 +18°C° 0 mm 2 mps 729 mmHg 74%
    19:00 +17°C° 0 mm 3 mps 729 mmHg 80%
    20:00 +16°C° 0 mm 3 mps 729 mmHg 87%
    21:00 +16°C° 0 mm 3 mps 729 mmHg 86%
    22:00 +14°C° 0 mm 4 mps 729 mmHg 86%
    23:00 +14°C° 0 mm 4 mps 728 mmHg 85%

    28 May, Tuesday

    Time Temperature Precipitation Wind Pressure Humidity
    00:00 +14°C° 0.3 mm 4 mps 728 mmHg 86%
    01:00 +15°C° 0.3 mm 5 mps 728 mmHg 86%
    02:00 +15°C° 0.3 mm 5 mps 727 mmHg 87%
    03:00 +15°C° 0.5 mm 5 mps 727 mmHg 88%
    04:00 +15°C° 0.5 mm 6 mps 726 mmHg 90%
    05:00 +15°C° 0.5 mm 6 mps 726 mmHg 92%
    06:00 +15°C° 0.2 mm 7 mps 726 mmHg 89%
    07:00 +16°C° 0.2 mm 7 mps 726 mmHg 85%
    08:00 +17°C° 0.2 mm 8 mps 725 mmHg 82%
    09:00 +18°C° 0 mm 8 mps 725 mmHg 78%
    10:00 +21°C° 0 mm 8 mps 725 mmHg 73%
    11:00 +22°C° 0 mm 9 mps 725 mmHg 69%
    12:00 +23°C° 0 mm 8 mps 725 mmHg 68%
    13:00 +23°C° 0 mm 8 mps 725 mmHg 67%
    14:00 +24°C° 0 mm 8 mps 724 mmHg 66%
    15:00 +24°C° 0 mm 7 mps 724 mmHg 68%
    16:00 +24°C° 0 mm 6 mps 724 mmHg 70%
    17:00 +24°C° 0 mm 6 mps 724 mmHg 72%
    18:00 +23°C° 0.6 mm 5 mps 724 mmHg 76%
    19:00 +21°C° 0.6 mm 5 mps 724 mmHg 80%
    20:00 +20°C° 0.6 mm 4 mps 724 mmHg 83%
    21:00 +19°C° 1.3 mm 4 mps 724 mmHg 86%
    22:00 +18°C° 1.3 mm 4 mps 724 mmHg 89%
    23:00 +17°C° 1.3 mm 4 mps 724 mmHg 92%
    Show more